Location: �couen
(49.0206°N, 2.3831°E)
Time: 22:25:54
(UTC+00:00)

ATLAS 3B R/B - Pass Details

Date: 28 May 2022
Orbit: 976 x 1218 km, 63.8° (Epoch: 20 June)

Event Time Altitude Azimuth Distance (km) Brightness Sun altitude
Rises 21:12:45 0° 318° (NW) 3,943 7.8 -11.4°
Reaches altitude 10° 21:15:23 10° 318° (NW) 3,015 6.6 -11.7°
Maximum altitude 21:22:38 86° 232° (SW) 1,181 2.9 -12.4°
Enters shadow 21:28:50 17° 144° (SE) 2,658 4.1 -12.9°
